Showing default

OPS 9322 (IDSCS 9), 2649

Orbit data source: Space-Track

OPS 9322 (IDSCS 9), 2649 is a payload satellite owned by USAF SSD (US) in GEO that was launched on Wed, 18 Jan 1967 UTC via a TITAN IIIC launch vehicle from the Air Force Eastern Test Range (AFETR). Payload-class satellites include a variety of spacecraft equipped with specific instruments for various scientific and technological missions. These include communications satellites like Starlink; space stations such as the ISS; scientific satellites like the Hubble; Earth observation satellites from companies like Planet Labs, Umbra, and HawkEye 360; GPS; miniature CubeSats for education and research; and military/defense satellites.

Not visible in the next 10 days
Identifier
2649, 1967-003B
Orbit
GEO
Country
Flag of USUS
Related business
Manufacturer
Philco-Ford WDL
Mission
Non-operational spacecraft
Bus & Motor
IDCSP, Unknown motor
Mass
45 kg wet, 45 kg dry
Launch date (UTC)
1967-01-18 (60 years ago)
Launch vehicle
TITAN IIIC
Launch site
Air Force Eastern Test Range (AFETR)
Object type
Payload
Rocket body
Debris
Shape & HBR
ICO POLY, 0.5 m
Radar Cross Section
Medium (>0.1 m² and <1 m²)

Expand to show TLE details & history
Last TLE update: 1 day ago

TLE from 1 day ago
0 OPS 9322 (IDSCS 9)
1 02649U 67003B   26206.75388222 -.00000073  00000-0  00000-0 0  9991
2 02649   8.3720  44.1834 0034698 121.2437  64.4147  1.08281640139859
Epoch: 2026-07-25T18:05Z
TLE epoch observation values (Epoch: 2026-07-25T18:05:35.423Z)
Latitude
-0.8711°
Longitude
15.28838°
Altitude
33,621.337 km
Speed
3.159 km/s
True Right ascension
15h 20m 35s
True Declination
0° 52' 13"
Sunlit
Object was in daylight at epoch
Visualization orbit readout
Latitude
Unknown
Longitude
Unknown
Altitude
Unknown
Speed
Unknown
Apparent Right ascension
Unknown
Apparent Declination
Unknown
Sunlit
N/A
Visualization observer readout
Local Sidereal Time
10:53:34
Azimuth
Unknown
Elevation
Unknown
Doppler factor
Unknown
Orbital elements
Apogee altitude
33,820.816 km
Perigee altitude
33,542.816 km
Semi-major axis
40,059.953 km
Eccentricity
0.00347
Inclination
8.372°
RAAN
44.1834°
Arg. of periapsis
121.2437°
True anomaly
64.77399°
Mean anomaly
64.4147°
Eccentric anomaly
64.59428°
Mean motion
0.27069 °/min
Orbital period
1,329.92 mins
BSTAR
0
Loading maneuver chart data...
Computing Atmospheric mass density...
Loading historical data...
Loading historical data...
Loading historical data...
Loading historical data...
Loading historical data...
Loading historical data...
Loading historical data...

Documentation

Showing up to 5 results
|